TimeCDT,TemperatureF,Dew PointF,Humidity,Sea Level PressureIn,VisibilityMPH,Wind Direction,Wind SpeedMPH,Gust SpeedMPH,PrecipitationIn,Events,Conditions,WindDirDegrees,DateUTC
12:15 AM,53.6,37.4,54,29.90,10.0,Calm,Calm,-,N/A,,Clear,0,2012-11-02 05:15:00
12:35 AM,51.8,37.4,58,29.90,10.0,East,3.5,-,N/A,,Clear,80,2012-11-02 05:35:00
12:55 AM,51.8,37.4,58,29.90,10.0,Calm,Calm,-,N/A,,Clear,0,2012-11-02 05:55:00
1:15 AM,51.8,37.4,58,29.89,10.0,East,4.6,-,N/A,,Clear,100,2012-11-02 06:15:00
1:35 AM,50.0,37.4,62,29.89,10.0,ESE,3.5,-,N/A,,Clear,120,2012-11-02 06:35:00
1:55 AM,48.2,35.6,62,29.89,10.0,SE,3.5,-,N/A,,Clear,140,2012-11-02 06:55:00
2:15 AM,50.0,39.2,66,29.89,10.0,ESE,3.5,-,N/A,,Clear,110,2012-11-02 07:15:00
2:35 AM,48.2,37.4,66,29.89,10.0,East,5.8,-,N/A,,Clear,80,2012-11-02 07:35:00
2:55 AM,50.0,37.4,62,29.88,10.0,East,4.6,-,N/A,,Clear,90,2012-11-02 07:55:00
3:15 AM,50.0,39.2,66,29.88,10.0,ESE,5.8,-,N/A,,Clear,110,2012-11-02 08:15:00
3:35 AM,50.0,39.2,66,29.88,10.0,ESE,3.5,-,N/A,,Clear,120,2012-11-02 08:35:00
3:55 AM,50.0,39.2,66,29.87,10.0,ESE,5.8,-,N/A,,Clear,120,2012-11-02 08:55:00
4:15 AM,50.0,39.2,66,29.87,10.0,East,5.8,-,N/A,,Clear,100,2012-11-02 09:15:00
4:35 AM,50.0,39.2,66,29.86,10.0,East,5.8,-,N/A,,Clear,90,2012-11-02 09:35:00
4:55 AM,50.0,39.2,66,29.86,10.0,ESE,6.9,-,N/A,,Clear,110,2012-11-02 09:55:00
5:15 AM,48.2,39.2,71,29.86,10.0,ESE,8.1,-,N/A,,Clear,110,2012-11-02 10:15:00
5:35 AM,48.2,39.2,71,29.86,10.0,East,5.8,-,N/A,,Clear,100,2012-11-02 10:35:00
5:55 AM,50.0,41.0,71,29.86,10.0,ESE,5.8,-,N/A,,Clear,110,2012-11-02 10:55:00
6:15 AM,50.0,41.0,71,29.86,10.0,ESE,5.8,-,N/A,,Clear,110,2012-11-02 11:15:00
6:35 AM,50.0,41.0,71,29.85,10.0,East,6.9,-,N/A,,Clear,100,2012-11-02 11:35:00
6:55 AM,50.0,41.0,71,29.85,10.0,ESE,3.5,-,N/A,,Clear,110,2012-11-02 11:55:00
7:15 AM,50.0,41.0,71,29.85,10.0,ESE,4.6,-,N/A,,Clear,110,2012-11-02 12:15:00
7:35 AM,50.0,41.0,71,29.85,10.0,ESE,4.6,-,N/A,,Clear,120,2012-11-02 12:35:00
7:55 AM,50.0,41.0,71,29.85,10.0,ESE,4.6,-,N/A,,Clear,120,2012-11-02 12:55:00
8:15 AM,50.0,42.8,76,29.86,10.0,ESE,4.6,-,N/A,,Clear,120,2012-11-02 13:15:00
8:35 AM,50.0,42.8,76,29.86,10.0,SE,5.8,-,N/A,,Clear,130,2012-11-02 13:35:00
8:55 AM,53.6,44.6,72,29.87,10.0,SE,4.6,-,N/A,,Clear,140,2012-11-02 13:55:00
9:15 AM,55.4,44.6,67,29.87,10.0,SE,4.6,-,N/A,,Clear,140,2012-11-02 14:15:00
9:35 AM,57.2,44.6,63,29.87,10.0,SE,8.1,-,N/A,,Clear,140,2012-11-02 14:35:00
9:55 AM,59.0,44.6,59,29.87,10.0,SSE,9.2,-,N/A,,Clear,150,2012-11-02 14:55:00
10:15 AM,62.6,44.6,52,29.87,10.0,SSE,9.2,-,N/A,,Clear,160,2012-11-02 15:15:00
10:35 AM,64.4,44.6,49,29.87,10.0,South,9.2,-,N/A,,Clear,190,2012-11-02 15:35:00
10:55 AM,68.0,44.6,43,29.86,10.0,South,11.5,-,N/A,,Clear,190,2012-11-02 15:55:00
11:15 AM,71.6,44.6,38,29.86,10.0,South,10.4,-,N/A,,Clear,180,2012-11-02 16:15:00
11:35 AM,75.2,46.4,36,29.86,10.0,South,17.3,-,N/A,,Clear,190,2012-11-02 16:35:00
11:55 AM,77.0,44.6,32,29.85,10.0,SSW,17.3,20.7,N/A,,Clear,200,2012-11-02 16:55:00
12:15 PM,78.8,44.6,30,29.84,10.0,SSW,13.8,-,N/A,,Clear,210,2012-11-02 17:15:00
12:35 PM,80.6,44.6,28,29.83,10.0,SSW,19.6,23.0,N/A,,Clear,210,2012-11-02 17:35:00
12:55 PM,82.4,44.6,26,29.82,10.0,SSW,19.6,25.3,N/A,,Clear,200,2012-11-02 17:55:00
1:15 PM,82.4,44.6,26,29.81,10.0,SSW,20.7,25.3,N/A,,Clear,200,2012-11-02 18:15:00
1:35 PM,84.2,44.6,25,29.80,10.0,SSW,23.0,28.8,N/A,,Clear,200,2012-11-02 18:35:00
1:55 PM,86.0,44.6,23,29.78,10.0,South,21.9,32.2,N/A,,Clear,190,2012-11-02 18:55:00
2:15 PM,86.0,44.6,23,29.77,10.0,SSW,25.3,32.2,N/A,,Clear,210,2012-11-02 19:15:00
2:35 PM,87.8,44.6,22,29.76,10.0,SSW,26.5,35.7,N/A,,Clear,210,2012-11-02 19:35:00
2:55 PM,86.0,42.8,22,29.75,10.0,SSW,28.8,36.8,N/A,,Clear,200,2012-11-02 19:55:00
3:15 PM,87.8,41.0,19,29.75,10.0,South,29.9,34.5,N/A,,Clear,190,2012-11-02 20:15:00
3:35 PM,89.6,41.0,18,29.74,10.0,SSW,28.8,35.7,N/A,,Clear,200,2012-11-02 20:35:00
3:55 PM,87.8,41.0,19,29.75,10.0,SSW,28.8,35.7,N/A,,Clear,210,2012-11-02 20:55:00
4:15 PM,87.8,39.2,18,29.75,10.0,SSW,29.9,35.7,N/A,,Clear,210,2012-11-02 21:15:00
4:35 PM,86.0,41.0,20,29.75,10.0,SSW,26.5,32.2,N/A,,Clear,210,2012-11-02 21:35:00
4:55 PM,86.0,41.0,20,29.75,10.0,SSW,23.0,33.4,N/A,,Clear,210,2012-11-02 21:55:00
5:15 PM,84.2,41.0,22,29.76,10.0,SSW,26.5,33.4,N/A,,Clear,200,2012-11-02 22:15:00
5:35 PM,84.2,42.8,23,29.76,10.0,SSW,19.6,25.3,N/A,,Clear,200,2012-11-02 22:35:00
5:55 PM,84.2,44.6,25,29.76,10.0,SSW,21.9,27.6,N/A,,Clear,200,2012-11-02 22:55:00
6:15 PM,82.4,44.6,26,29.77,10.0,South,16.1,24.2,N/A,,Clear,190,2012-11-02 23:15:00
6:55 PM,77.0,46.4,34,29.79,10.0,SSW,13.8,-,N/A,,Clear,210,2012-11-02 23:55:00
7:15 PM,75.2,32.0,21,29.81,10.0,NW,11.5,-,N/A,,Clear,310,2012-11-03 00:15:00
7:35 PM,71.6,35.6,27,29.83,10.0,NW,11.5,-,N/A,,Clear,320,2012-11-03 00:35:00
7:55 PM,66.2,35.6,32,29.84,10.0,NNW,10.4,-,N/A,,Clear,330,2012-11-03 00:55:00
8:15 PM,66.2,35.6,32,29.85,10.0,NNW,12.7,-,N/A,,Clear,330,2012-11-03 01:15:00
8:35 PM,64.4,35.6,34,29.85,10.0,NW,10.4,-,N/A,,Clear,310,2012-11-03 01:35:00
8:55 PM,62.6,35.6,37,29.86,10.0,WNW,10.4,-,N/A,,Clear,300,2012-11-03 01:55:00
9:15 PM,62.6,37.4,39,29.87,10.0,WNW,13.8,-,N/A,,Clear,300,2012-11-03 02:15:00
9:35 PM,62.6,39.2,42,29.87,10.0,NW,12.7,-,N/A,,Clear,310,2012-11-03 02:35:00
9:55 PM,60.8,39.2,45,29.88,10.0,NW,13.8,-,N/A,,Clear,310,2012-11-03 02:55:00
10:15 PM,59.0,41.0,51,29.90,10.0,NW,11.5,-,N/A,,Clear,310,2012-11-03 03:15:00
10:35 PM,59.0,41.0,51,29.91,10.0,NW,12.7,-,N/A,,Clear,310,2012-11-03 03:35:00
10:55 PM,59.0,41.0,51,29.91,10.0,NNW,16.1,20.7,N/A,,Clear,330,2012-11-03 03:55:00
11:15 PM,59.0,41.0,51,29.92,10.0,NNW,16.1,-,N/A,,Clear,330,2012-11-03 04:15:00
11:35 PM,57.2,41.0,55,29.93,10.0,NNW,17.3,-,N/A,,Partly Cloudy,330,2012-11-03 04:35:00
11:55 PM,57.2,41.0,55,29.94,10.0,NNW,16.1,-,N/A,,Mostly Cloudy,330,2012-11-03 04:55:00